Content
SEND FEEDBACK

Daily
Averages
Monthly
Summary
United States of America

ASHLAND, MISSOURI


Home > North America > United States > Missouri
Elevation: 857 feet     Latitude: 38 49N     Longitude: 092 13W

WEATHER
 
SELECT A DAY
Number of Records: 201,820;   Date Range: 1/1/95 - 7/23/14
 
SHARE

PRINT THIS DATA

[ ← Previous Day ]
WEATHER ALMANAC - JANUARY 7, 2013
[ Next Day → ]
[ °C ]   °F
Weather ElementAverageHighLow
Temperature34.2 °F48 °F (1:54 pm)21 °F (5:54 am)
Dewpoint21.4 °F24.8 °F (12:54 pm)17.1 °F (3:54 am)
Humidity61.9 %85 % (1:54 am)39 % (1:54 pm)
Barometer30.24 in30.37 in (1:54 am)30.12 in (11:54 pm)
Wind Speed9.9 mph15 mph (12:54 pm)
Weather ElementAverage
Visibility10 mi
Wind DirectionSSE (172.6 °)

Weather ElementTotal
Precipitation---
Heating Degree Days30.5 (Base 65)
Averaged from 23 records on January 7, 2013
WEATHER CONDITIONS BREAKOUT
WIND DIRECTION BREAKOUT
WEATHER BY HOUR - JANUARY 7, 2013
[ °C ]   °F
Local TimeTemperatureDewpointHumidityBarometerVisibilityWind DirectionWind SpeedGust SpeedPrecipitationEventsConditions
1:54 AM21.9 °F18.0 °F85 %30.37 in10.0 miSouth (180°)8.1 mphClear
2:54 AM21.9 °F18.0 °F85 %30.37 in10.0 miSouth (170°)8.1 mphClear
3:54 AM21.9 °F17.1 °F82 %30.35 in10.0 miSSE (160°)6.9 mphClear
4:54 AM21.9 °F17.1 °F82 %30.34 in10.0 miSSE (150°)6.9 mphClear
5:54 AM21.0 °F17.1 °F85 %30.32 in10.0 miSE (140°)8.1 mphClear
6:54 AM21.9 °F17.1 °F82 %30.33 in10.0 miSE (140°)6.9 mphClear
7:54 AM23.0 °F18.0 °F81 %30.34 in10.0 miSouth (170°)9.2 mphClear
8:54 AM27.0 °F19.9 °F75 %30.34 in10.0 miSouth (170°)10.4 mphClear
9:54 AM32.0 °F21.0 °F64 %30.34 in10.0 miSouth (170°)13.8 mphClear
10:54 AM37.9 °F21.9 °F53 %30.31 in10.0 miSouth (170°)10.4 mphClear
11:54 AM44.1 °F23.0 °F43 %30.26 in10.0 miSouth (190°)10.4 mphClear
12:54 PM46.4 °F24.8 °F43 %30.21 in10.0 miSSW (210°)15.0 mphClear
1:54 PM48.0 °F24.1 °F39 %30.20 in10.0 miSouth (180°)13.8 mphClear
2:54 PM46.9 °F24.1 °F41 %30.18 in10.0 miSouth (180°)13.8 mphClear
3:54 PM46.0 °F24.1 °F42 %30.18 in10.0 miSouth (180°)8.1 mphClear
4:54 PM42.8 °F24.8 °F49 %30.14 in10.0 miSouth (170°)6.9 mphClear
5:54 PM37.9 °F24.1 °F57 %30.16 in10.0 miSouth (170°)9.2 mphClear
6:54 PM39.9 °F24.1 °F53 %30.15 in10.0 miSouth (180°)11.5 mphClear
7:54 PM39.0 °F23.0 °F53 %30.14 in10.0 miSouth (180°)9.2 mphClear
8:54 PM37.9 °F23.0 °F55 %30.14 in10.0 miSouth (180°)11.5 mphClear
9:54 PM36.0 °F21.9 °F57 %30.14 in10.0 miSouth (180°)10.4 mphClear
10:54 PM36.0 °F21.9 °F57 %30.13 in10.0 miSouth (180°)10.4 mphClear
11:54 PM35.1 °F23.0 °F61 %30.12 in10.0 miSouth (170°)9.2 mphClear
Hourly data recorded from KCOU, located miles away from Ashland, Missouri







STORIES FROM OUR PARTNERS